Year,Month,Day,Hour,Minute,Value (Times are PST for insolation in W/m^2)
2012,12,22,00,00,0.00
2012,12,22,00,01,0.00
2012,12,22,00,02,0.00
2012,12,22,00,03,0.00
2012,12,22,00,04,0.00
2012,12,22,00,05,0.00
2012,12,22,00,06,0.00
2012,12,22,00,07,0.00
2012,12,22,00,08,0.00
2012,12,22,00,09,0.00
2012,12,22,00,10,0.00
2012,12,22,00,11,0.00
2012,12,22,00,12,0.00
2012,12,22,00,13,0.00
2012,12,22,00,14,0.00
2012,12,22,00,15,0.00
2012,12,22,00,16,0.00
2012,12,22,00,17,0.00
2012,12,22,00,18,0.00
2012,12,22,00,19,0.00
2012,12,22,00,20,0.00
2012,12,22,00,21,0.00
2012,12,22,00,22,0.00
2012,12,22,00,23,0.00
2012,12,22,00,24,0.00
2012,12,22,00,25,0.00
2012,12,22,00,26,0.00
2012,12,22,00,27,0.00
2012,12,22,00,28,0.00
2012,12,22,00,29,0.00
2012,12,22,00,30,0.00
2012,12,22,00,31,0.00
2012,12,22,00,32,0.00
2012,12,22,00,33,0.00
2012,12,22,00,34,0.00
2012,12,22,00,35,0.00
2012,12,22,00,36,0.00
2012,12,22,00,37,0.00
2012,12,22,00,38,0.00
2012,12,22,00,39,0.00
2012,12,22,00,40,0.00
2012,12,22,00,41,0.00
2012,12,22,00,42,0.00
2012,12,22,00,43,0.00
2012,12,22,00,44,0.00
2012,12,22,00,45,0.00
2012,12,22,00,46,0.00
2012,12,22,00,47,0.00
2012,12,22,00,48,0.00
2012,12,22,00,49,0.00
2012,12,22,00,50,0.00
2012,12,22,00,51,0.00
2012,12,22,00,52,0.00
2012,12,22,00,53,0.00
2012,12,22,00,54,0.00
2012,12,22,00,55,0.00
2012,12,22,00,56,0.00
2012,12,22,00,57,0.00
2012,12,22,00,58,0.00
2012,12,22,00,59,0.00
2012,12,22,01,00,0.00
2012,12,22,01,01,0.00
2012,12,22,01,02,0.00
2012,12,22,01,03,0.00
2012,12,22,01,04,0.00
2012,12,22,01,05,0.00
2012,12,22,01,06,0.00
2012,12,22,01,07,0.00
2012,12,22,01,08,0.00
2012,12,22,01,09,0.00
2012,12,22,01,10,0.00
2012,12,22,01,11,0.00
2012,12,22,01,12,0.00
2012,12,22,01,13,0.00
2012,12,22,01,14,0.00
2012,12,22,01,15,0.00
2012,12,22,01,16,0.00
2012,12,22,01,17,0.00
2012,12,22,01,18,0.00
2012,12,22,01,19,0.00
2012,12,22,01,20,0.00
2012,12,22,01,21,0.00
2012,12,22,01,22,0.00
2012,12,22,01,23,0.00
2012,12,22,01,24,0.00
2012,12,22,01,25,0.00
2012,12,22,01,26,0.00
2012,12,22,01,27,0.00
2012,12,22,01,28,0.00
2012,12,22,01,29,0.00
2012,12,22,01,30,0.00
2012,12,22,01,31,0.00
2012,12,22,01,32,0.00
2012,12,22,01,33,0.00
2012,12,22,01,34,0.00
2012,12,22,01,35,0.00
2012,12,22,01,36,0.00
2012,12,22,01,37,0.00
2012,12,22,01,38,0.00
2012,12,22,01,39,0.00
2012,12,22,01,40,0.00
2012,12,22,01,41,0.00
2012,12,22,01,42,0.00
2012,12,22,01,43,0.00
2012,12,22,01,44,0.00
2012,12,22,01,45,0.00
2012,12,22,01,46,0.00
2012,12,22,01,47,0.00
2012,12,22,01,48,0.00
2012,12,22,01,49,0.00
2012,12,22,01,50,0.00
2012,12,22,01,51,0.00
2012,12,22,01,52,0.00
2012,12,22,01,53,0.00
2012,12,22,01,54,0.00
2012,12,22,01,55,0.00
2012,12,22,01,56,0.00
2012,12,22,01,57,0.00
2012,12,22,01,58,0.00
2012,12,22,01,59,0.00
2012,12,22,02,00,0.00
2012,12,22,02,01,0.00
2012,12,22,02,02,0.00
2012,12,22,02,03,0.00
2012,12,22,02,04,0.00
2012,12,22,02,05,0.00
2012,12,22,02,06,0.00
2012,12,22,02,07,0.00
2012,12,22,02,08,0.00
2012,12,22,02,09,0.00
2012,12,22,02,10,0.00
2012,12,22,02,11,0.00
2012,12,22,02,12,0.00
2012,12,22,02,13,0.00
2012,12,22,02,14,0.00
2012,12,22,02,15,0.00
2012,12,22,02,16,0.00
2012,12,22,02,17,0.00
2012,12,22,02,18,0.00
2012,12,22,02,19,0.00
2012,12,22,02,20,0.00
2012,12,22,02,21,0.00
2012,12,22,02,22,0.00
2012,12,22,02,23,0.00
2012,12,22,02,24,0.00
2012,12,22,02,25,0.00
2012,12,22,02,26,0.00
2012,12,22,02,27,0.00
2012,12,22,02,28,0.00
2012,12,22,02,29,0.00
2012,12,22,02,30,0.00
2012,12,22,02,31,0.00
2012,12,22,02,32,0.00
2012,12,22,02,33,0.00
2012,12,22,02,34,0.00
2012,12,22,02,35,0.00
2012,12,22,02,36,0.00
2012,12,22,02,37,0.00
2012,12,22,02,38,0.00
2012,12,22,02,39,0.00
2012,12,22,02,40,0.00
2012,12,22,02,41,0.00
2012,12,22,02,42,0.00
2012,12,22,02,43,0.00
2012,12,22,02,44,0.00
2012,12,22,02,45,0.00
2012,12,22,02,46,0.00
2012,12,22,02,47,0.00
2012,12,22,02,48,0.00
2012,12,22,02,49,0.00
2012,12,22,02,50,0.00
2012,12,22,02,51,0.00
2012,12,22,02,52,0.00
2012,12,22,02,53,0.00
2012,12,22,02,54,0.00
2012,12,22,02,55,0.00
2012,12,22,02,56,0.00
2012,12,22,02,57,0.00
2012,12,22,02,58,0.00
2012,12,22,02,59,0.00
2012,12,22,03,00,0.00
2012,12,22,03,01,0.00
2012,12,22,03,02,0.00
2012,12,22,03,03,0.00
2012,12,22,03,04,0.00
2012,12,22,03,05,0.00
2012,12,22,03,06,0.00
2012,12,22,03,07,0.00
2012,12,22,03,08,0.00
2012,12,22,03,09,0.00
2012,12,22,03,10,0.00
2012,12,22,03,11,0.00
2012,12,22,03,12,0.00
2012,12,22,03,13,0.00
2012,12,22,03,14,0.00
2012,12,22,03,15,0.00
2012,12,22,03,16,0.00
2012,12,22,03,17,0.00
2012,12,22,03,18,0.00
2012,12,22,03,19,0.00
2012,12,22,03,20,0.00
2012,12,22,03,21,0.00
2012,12,22,03,22,0.00
2012,12,22,03,23,0.00
2012,12,22,03,24,0.00
2012,12,22,03,25,0.00
2012,12,22,03,26,0.00
2012,12,22,03,27,0.00
2012,12,22,03,28,0.00
2012,12,22,03,29,0.00
2012,12,22,03,30,0.00
2012,12,22,03,31,0.00
2012,12,22,03,32,0.00
2012,12,22,03,33,0.00
2012,12,22,03,34,0.00
2012,12,22,03,35,0.00
2012,12,22,03,36,0.00
2012,12,22,03,37,0.00
2012,12,22,03,38,0.00
2012,12,22,03,39,0.00
2012,12,22,03,40,0.00
2012,12,22,03,41,0.00
2012,12,22,03,42,0.00
2012,12,22,03,43,0.00
2012,12,22,03,44,0.00
2012,12,22,03,45,0.00
2012,12,22,03,46,0.00
2012,12,22,03,47,0.00
2012,12,22,03,48,0.00
2012,12,22,03,49,0.00
2012,12,22,03,50,0.00
2012,12,22,03,51,0.00
2012,12,22,03,52,0.00
2012,12,22,03,53,0.00
2012,12,22,03,54,0.00
2012,12,22,03,55,0.00
2012,12,22,03,56,0.00
2012,12,22,03,57,0.00
2012,12,22,03,58,0.00
2012,12,22,03,59,0.00
2012,12,22,04,00,0.00
2012,12,22,04,01,0.00
2012,12,22,04,02,0.00
2012,12,22,04,03,0.00
2012,12,22,04,04,0.00
2012,12,22,04,05,0.00
2012,12,22,04,06,0.00
2012,12,22,04,07,0.00
2012,12,22,04,08,0.00
2012,12,22,04,09,0.00
2012,12,22,04,10,0.00
2012,12,22,04,11,0.00
2012,12,22,04,12,0.00
2012,12,22,04,13,0.00
2012,12,22,04,14,0.00
2012,12,22,04,15,0.00
2012,12,22,04,16,0.00
2012,12,22,04,17,0.00
2012,12,22,04,18,0.00
2012,12,22,04,19,0.00
2012,12,22,04,20,0.00
2012,12,22,04,21,0.00
2012,12,22,04,22,0.00
2012,12,22,04,23,0.00
2012,12,22,04,24,0.00
2012,12,22,04,25,0.00
2012,12,22,04,26,0.00
2012,12,22,04,27,0.00
2012,12,22,04,28,0.00
2012,12,22,04,29,0.00
2012,12,22,04,30,0.00
2012,12,22,04,31,0.00
2012,12,22,04,32,0.00
2012,12,22,04,33,0.00
2012,12,22,04,34,0.00
2012,12,22,04,35,0.00
2012,12,22,04,36,0.00
2012,12,22,04,37,0.00
2012,12,22,04,38,0.00
2012,12,22,04,39,0.00
2012,12,22,04,40,0.00
2012,12,22,04,41,0.00
2012,12,22,04,42,0.00
2012,12,22,04,43,0.00
2012,12,22,04,44,0.00
2012,12,22,04,45,0.00
2012,12,22,04,46,0.00
2012,12,22,04,47,0.00
2012,12,22,04,48,0.00
2012,12,22,04,49,0.00
2012,12,22,04,50,0.00
2012,12,22,04,51,0.00
2012,12,22,04,52,0.00
2012,12,22,04,53,0.00
2012,12,22,04,54,0.00
2012,12,22,04,55,0.00
2012,12,22,04,56,0.00
2012,12,22,04,57,0.00
2012,12,22,04,58,0.00
2012,12,22,04,59,0.00
2012,12,22,05,00,0.00
2012,12,22,05,01,0.00
2012,12,22,05,02,0.00
2012,12,22,05,03,0.00
2012,12,22,05,04,0.00
2012,12,22,05,05,0.00
2012,12,22,05,06,0.00
2012,12,22,05,07,0.00
2012,12,22,05,08,0.00
2012,12,22,05,09,0.00
2012,12,22,05,10,0.00
2012,12,22,05,11,0.00
2012,12,22,05,12,0.00
2012,12,22,05,13,0.00
2012,12,22,05,14,0.00
2012,12,22,05,15,0.00
2012,12,22,05,16,0.00
2012,12,22,05,17,0.00
2012,12,22,05,18,0.00
2012,12,22,05,19,0.00
2012,12,22,05,20,0.00
2012,12,22,05,21,0.00
2012,12,22,05,22,0.00
2012,12,22,05,23,0.00
2012,12,22,05,24,0.00
2012,12,22,05,25,0.00
2012,12,22,05,26,0.00
2012,12,22,05,27,0.00
2012,12,22,05,28,0.00
2012,12,22,05,29,0.00
2012,12,22,05,30,0.00
2012,12,22,05,31,0.00
2012,12,22,05,32,0.00
2012,12,22,05,33,0.00
2012,12,22,05,34,0.00
2012,12,22,05,35,0.00
2012,12,22,05,36,0.00
2012,12,22,05,37,0.00
2012,12,22,05,38,0.00
2012,12,22,05,39,0.00
2012,12,22,05,40,0.00
2012,12,22,05,41,0.00
2012,12,22,05,42,0.00
2012,12,22,05,43,0.00
2012,12,22,05,44,0.00
2012,12,22,05,45,0.00
2012,12,22,05,46,0.00
2012,12,22,05,47,0.00
2012,12,22,05,48,0.00
2012,12,22,05,49,0.00
2012,12,22,05,50,0.00
2012,12,22,05,51,0.00
2012,12,22,05,52,0.00
2012,12,22,05,53,0.00
2012,12,22,05,54,0.00
2012,12,22,05,55,0.00
2012,12,22,05,56,0.00
2012,12,22,05,57,0.00
2012,12,22,05,58,0.00
2012,12,22,05,59,0.00
2012,12,22,06,00,0.00
2012,12,22,06,01,0.00
2012,12,22,06,02,0.00
2012,12,22,06,03,0.00
2012,12,22,06,04,0.00
2012,12,22,06,05,0.00
2012,12,22,06,06,0.00
2012,12,22,06,07,0.00
2012,12,22,06,08,0.00
2012,12,22,06,09,0.00
2012,12,22,06,10,0.00
2012,12,22,06,11,0.00
2012,12,22,06,12,0.00
2012,12,22,06,13,0.00
2012,12,22,06,14,0.00
2012,12,22,06,15,0.00
2012,12,22,06,16,0.00
2012,12,22,06,17,0.00
2012,12,22,06,18,0.00
2012,12,22,06,19,0.00
2012,12,22,06,20,0.00
2012,12,22,06,21,0.00
2012,12,22,06,22,0.00
2012,12,22,06,23,0.00
2012,12,22,06,24,0.00
2012,12,22,06,25,0.00
2012,12,22,06,26,0.00
2012,12,22,06,27,0.00
2012,12,22,06,28,0.00
2012,12,22,06,29,0.00
2012,12,22,06,30,0.00
2012,12,22,06,31,0.00
2012,12,22,06,32,0.00
2012,12,22,06,33,0.00
2012,12,22,06,34,0.00
2012,12,22,06,35,0.00
2012,12,22,06,36,0.00
2012,12,22,06,37,0.00
2012,12,22,06,38,0.00
2012,12,22,06,39,0.00
2012,12,22,06,40,0.00
2012,12,22,06,41,0.00
2012,12,22,06,42,0.00
2012,12,22,06,43,0.00
2012,12,22,06,44,0.00
2012,12,22,06,45,0.00
2012,12,22,06,46,0.00
2012,12,22,06,47,0.00
2012,12,22,06,48,0.00
2012,12,22,06,49,0.00
2012,12,22,06,50,0.00
2012,12,22,06,51,0.00
2012,12,22,06,52,0.00
2012,12,22,06,53,0.00
2012,12,22,06,54,0.00
2012,12,22,06,55,0.00
2012,12,22,06,56,0.00
2012,12,22,06,57,0.00
2012,12,22,06,58,0.00
2012,12,22,06,59,0.00
2012,12,22,07,00,0.00
2012,12,22,07,01,0.00
2012,12,22,07,02,0.00
2012,12,22,07,03,0.00
2012,12,22,07,04,0.00
2012,12,22,07,05,0.00
2012,12,22,07,06,0.00
2012,12,22,07,07,0.00
2012,12,22,07,08,0.00
2012,12,22,07,09,0.00
2012,12,22,07,10,0.00
2012,12,22,07,11,0.00
2012,12,22,07,12,0.00
2012,12,22,07,13,0.00
2012,12,22,07,14,0.00
2012,12,22,07,15,0.00
2012,12,22,07,16,0.00
2012,12,22,07,17,0.00
2012,12,22,07,18,0.00
2012,12,22,07,19,0.00
2012,12,22,07,20,0.00
2012,12,22,07,21,0.00
2012,12,22,07,22,0.00
2012,12,22,07,23,0.00
2012,12,22,07,24,0.00
2012,12,22,07,25,0.00
2012,12,22,07,26,0.00
2012,12,22,07,27,0.00
2012,12,22,07,28,0.00
2012,12,22,07,29,0.00
2012,12,22,07,30,0.00
2012,12,22,07,31,0.00
2012,12,22,07,32,0.00
2012,12,22,07,33,0.00
2012,12,22,07,34,0.00
2012,12,22,07,35,0.00
2012,12,22,07,36,0.00
2012,12,22,07,37,0.00
2012,12,22,07,38,0.00
2012,12,22,07,39,0.00
2012,12,22,07,40,0.00
2012,12,22,07,41,0.00
2012,12,22,07,42,0.00
2012,12,22,07,43,0.00
2012,12,22,07,44,0.00
2012,12,22,07,45,0.00
2012,12,22,07,46,0.00
2012,12,22,07,47,0.00
2012,12,22,07,48,0.00
2012,12,22,07,49,0.00
2012,12,22,07,50,0.00
2012,12,22,07,51,0.00
2012,12,22,07,52,0.00
2012,12,22,07,53,0.00
2012,12,22,07,54,0.00
2012,12,22,07,55,0.00
2012,12,22,07,56,0.00
2012,12,22,07,57,0.00
2012,12,22,07,58,0.00
2012,12,22,07,59,0.00
2012,12,22,08,00,0.00
2012,12,22,08,01,0.00
2012,12,22,08,02,0.00
2012,12,22,08,03,0.00
2012,12,22,08,04,0.00
2012,12,22,08,05,0.00
2012,12,22,08,06,0.00
2012,12,22,08,07,0.00
2012,12,22,08,08,0.00
2012,12,22,08,09,0.00
2012,12,22,08,10,0.00
2012,12,22,08,11,0.00
2012,12,22,08,12,0.00
2012,12,22,08,13,0.00
2012,12,22,08,14,0.00
2012,12,22,08,15,0.00
2012,12,22,08,16,0.00
2012,12,22,08,17,0.00
2012,12,22,08,18,0.00
2012,12,22,08,19,0.00
2012,12,22,08,20,0.00
2012,12,22,08,21,0.00
2012,12,22,08,22,0.00
2012,12,22,08,23,0.00
2012,12,22,08,24,0.00
2012,12,22,08,25,0.00
2012,12,22,08,26,0.00
2012,12,22,08,27,0.00
2012,12,22,08,28,0.00
2012,12,22,08,29,0.00
2012,12,22,08,30,0.00
2012,12,22,08,31,0.00
2012,12,22,08,32,0.00
2012,12,22,08,33,0.00
2012,12,22,08,34,0.00
2012,12,22,08,35,0.00
2012,12,22,08,36,2.00
2012,12,22,08,37,5.00
2012,12,22,08,38,5.00
2012,12,22,08,39,5.00
2012,12,22,08,40,5.00
2012,12,22,08,41,5.00
2012,12,22,08,42,5.00
2012,12,22,08,43,5.00
2012,12,22,08,44,5.00
2012,12,22,08,45,6.70
2012,12,22,08,46,7.00
2012,12,22,08,47,7.00
2012,12,22,08,48,7.00
2012,12,22,08,49,7.00
2012,12,22,08,50,8.50
2012,12,22,08,51,9.00
2012,12,22,08,52,9.00
2012,12,22,08,53,9.60
2012,12,22,08,54,11.00
2012,12,22,08,55,11.00
2012,12,22,08,56,11.80
2012,12,22,08,57,12.20
2012,12,22,08,58,14.40
2012,12,22,08,59,16.00
2012,12,22,09,00,17.00
2012,12,22,09,01,18.00
2012,12,22,09,02,18.00
2012,12,22,09,03,18.00
2012,12,22,09,04,18.20
2012,12,22,09,05,19.00
2012,12,22,09,06,20.00
2012,12,22,09,07,21.00
2012,12,22,09,08,19.30
2012,12,22,09,09,18.90
2012,12,22,09,10,18.00
2012,12,22,09,11,18.00
2012,12,22,09,12,18.00
2012,12,22,09,13,18.00
2012,12,22,09,14,18.00
2012,12,22,09,15,19.00
2012,12,22,09,16,18.80
2012,12,22,09,17,18.00
2012,12,22,09,18,16.90
2012,12,22,09,19,14.60
2012,12,22,09,20,12.40
2012,12,22,09,21,11.10
2012,12,22,09,22,11.00
2012,12,22,09,23,11.00
2012,12,22,09,24,11.60
2012,12,22,09,25,13.40
2012,12,22,09,26,17.60
2012,12,22,09,27,19.00
2012,12,22,09,28,19.00
2012,12,22,09,29,19.00
2012,12,22,09,30,19.00
2012,12,22,09,31,19.00
2012,12,22,09,32,19.00
2012,12,22,09,33,19.00
2012,12,22,09,34,19.00
2012,12,22,09,35,19.00
2012,12,22,09,36,18.40
2012,12,22,09,37,18.00
2012,12,22,09,38,16.00
2012,12,22,09,39,14.00
2012,12,22,09,40,14.00
2012,12,22,09,41,14.00
2012,12,22,09,42,12.70
2012,12,22,09,43,12.00
2012,12,22,09,44,11.10
2012,12,22,09,45,11.00
2012,12,22,09,46,11.00
2012,12,22,09,47,11.00
2012,12,22,09,48,11.00
2012,12,22,09,49,11.00
2012,12,22,09,50,11.00
2012,12,22,09,51,11.00
2012,12,22,09,52,11.00
2012,12,22,09,53,11.00
2012,12,22,09,54,11.00
2012,12,22,09,55,11.90
2012,12,22,09,56,14.00
2012,12,22,09,57,14.60
2012,12,22,09,58,16.80
2012,12,22,09,59,18.50
2012,12,22,10,00,21.90
2012,12,22,10,01,25.50
2012,12,22,10,02,28.50
2012,12,22,10,03,32.20
2012,12,22,10,04,34.80
2012,12,22,10,05,38.20
2012,12,22,10,06,36.20
2012,12,22,10,07,32.30
2012,12,22,10,08,29.70
2012,12,22,10,09,27.40
2012,12,22,10,10,26.00
2012,12,22,10,11,24.30
2012,12,22,10,12,23.00
2012,12,22,10,13,23.00
2012,12,22,10,14,23.00
2012,12,22,10,15,23.90
2012,12,22,10,16,28.00
2012,12,22,10,17,30.00
2012,12,22,10,18,32.20
2012,12,22,10,19,34.80
2012,12,22,10,20,34.60
2012,12,22,10,21,32.10
2012,12,22,10,22,28.00
2012,12,22,10,23,26.00
2012,12,22,10,24,25.20
2012,12,22,10,25,25.00
2012,12,22,10,26,24.60
2012,12,22,10,27,23.00
2012,12,22,10,28,23.00
2012,12,22,10,29,24.30
2012,12,22,10,30,25.80
2012,12,22,10,31,23.10
2012,12,22,10,32,21.00
2012,12,22,10,33,19.90
2012,12,22,10,34,17.00
2012,12,22,10,35,16.00
2012,12,22,10,36,16.00
2012,12,22,10,37,16.00
2012,12,22,10,38,16.50
2012,12,22,10,39,18.40
2012,12,22,10,40,19.00
2012,12,22,10,41,20.30
2012,12,22,10,42,22.60
2012,12,22,10,43,22.70
2012,12,22,10,44,21.00
2012,12,22,10,45,21.00
2012,12,22,10,46,21.00
2012,12,22,10,47,24.00
2012,12,22,10,48,27.70
2012,12,22,10,49,36.00
2012,12,22,10,50,40.50
2012,12,22,10,51,36.10
2012,12,22,10,52,33.20
2012,12,22,10,53,29.10
2012,12,22,10,54,28.40
2012,12,22,10,55,37.20
2012,12,22,10,56,50.80
2012,12,22,10,57,50.70
2012,12,22,10,58,42.80
2012,12,22,10,59,43.20
2012,12,22,11,00,52.70
2012,12,22,11,01,66.50
2012,12,22,11,02,73.80
2012,12,22,11,03,78.00
2012,12,22,11,04,80.30
2012,12,22,11,05,85.00
2012,12,22,11,06,94.80
2012,12,22,11,07,98.00
2012,12,22,11,08,88.50
2012,12,22,11,09,85.00
2012,12,22,11,10,84.00
2012,12,22,11,11,89.60
2012,12,22,11,12,89.60
2012,12,22,11,13,79.20
2012,12,22,11,14,73.30
2012,12,22,11,15,72.00
2012,12,22,11,16,74.80
2012,12,22,11,17,80.20
2012,12,22,11,18,85.80
2012,12,22,11,19,88.90
2012,12,22,11,20,98.20
2012,12,22,11,21,101.10
2012,12,22,11,22,103.40
2012,12,22,11,23,104.80
2012,12,22,11,24,107.30
2012,12,22,11,25,109.50
2012,12,22,11,26,111.90
2012,12,22,11,27,113.00
2012,12,22,11,28,108.80
2012,12,22,11,29,95.10
2012,12,22,11,30,80.70
2012,12,22,11,31,79.00
2012,12,22,11,32,80.80
2012,12,22,11,33,85.90
2012,12,22,11,34,90.10
2012,12,22,11,35,92.80
2012,12,22,11,36,93.00
2012,12,22,11,37,93.00
2012,12,22,11,38,93.90
2012,12,22,11,39,96.20
2012,12,22,11,40,97.00
2012,12,22,11,41,99.60
2012,12,22,11,42,98.00
2012,12,22,11,43,100.10
2012,12,22,11,44,107.30
2012,12,22,11,45,115.60
2012,12,22,11,46,123.60
2012,12,22,11,47,132.30
2012,12,22,11,48,148.80
2012,12,22,11,49,167.10
2012,12,22,11,50,180.00
2012,12,22,11,51,186.00
2012,12,22,11,52,350.80
2012,12,22,11,53,376.60
2012,12,22,11,54,248.80
2012,12,22,11,55,257.00
2012,12,22,11,56,257.00
2012,12,22,11,57,257.00
2012,12,22,11,58,449.00
2012,12,22,11,59,416.60
2012,12,22,12,00,393.30
2012,12,22,12,01,333.60
2012,12,22,12,02,378.60
2012,12,22,12,03,470.50
2012,12,22,12,04,490.00
2012,12,22,12,05,401.80
2012,12,22,12,06,356.50
2012,12,22,12,07,328.00
2012,12,22,12,08,325.00
2012,12,22,12,09,325.00
2012,12,22,12,10,353.80
2012,12,22,12,11,268.70
2012,12,22,12,12,281.70
2012,12,22,12,13,296.20
2012,12,22,12,14,266.00
2012,12,22,12,15,257.20
2012,12,22,12,16,176.30
2012,12,22,12,17,139.00
2012,12,22,12,18,120.10
2012,12,22,12,19,103.70
2012,12,22,12,20,105.20
2012,12,22,12,21,107.00
2012,12,22,12,22,108.90
2012,12,22,12,23,110.20
2012,12,22,12,24,109.40
2012,12,22,12,25,118.50
2012,12,22,12,26,127.40
2012,12,22,12,27,135.60
2012,12,22,12,28,136.90
2012,12,22,12,29,134.80
2012,12,22,12,30,130.40
2012,12,22,12,31,120.30
2012,12,22,12,32,117.30
2012,12,22,12,33,121.90
2012,12,22,12,34,142.10
2012,12,22,12,35,154.50
2012,12,22,12,36,163.90
2012,12,22,12,37,177.00
2012,12,22,12,38,185.10
2012,12,22,12,39,183.60
2012,12,22,12,40,174.10
2012,12,22,12,41,167.10
2012,12,22,12,42,152.90
2012,12,22,12,43,146.00
2012,12,22,12,44,149.50
2012,12,22,12,45,155.20
2012,12,22,12,46,154.60
2012,12,22,12,47,151.60
2012,12,22,12,48,156.10
2012,12,22,12,49,163.00
2012,12,22,12,50,162.80
2012,12,22,12,51,145.00
2012,12,22,12,52,141.20
2012,12,22,12,53,143.90
2012,12,22,12,54,148.40
2012,12,22,12,55,153.40
2012,12,22,12,56,150.80
2012,12,22,12,57,142.70
2012,12,22,12,58,141.00
2012,12,22,12,59,141.00
2012,12,22,13,00,137.90
2012,12,22,13,01,154.10
2012,12,22,13,02,155.50
2012,12,22,13,03,137.90
2012,12,22,13,04,91.50
2012,12,22,13,05,109.00
2012,12,22,13,06,180.00
2012,12,22,13,07,203.50
2012,12,22,13,08,222.20
2012,12,22,13,09,215.60
2012,12,22,13,10,84.10
2012,12,22,13,11,73.80
2012,12,22,13,12,65.70
2012,12,22,13,13,63.00
2012,12,22,13,14,63.00
2012,12,22,13,15,63.60
2012,12,22,13,16,70.50
2012,12,22,13,17,77.20
2012,12,22,13,18,79.00
2012,12,22,13,19,76.90
2012,12,22,13,20,76.00
2012,12,22,13,21,73.80
2012,12,22,13,22,71.50
2012,12,22,13,23,70.00
2012,12,22,13,24,71.20
2012,12,22,13,25,73.50
2012,12,22,13,26,76.60
2012,12,22,13,27,77.20
2012,12,22,13,28,79.60
2012,12,22,13,29,81.90
2012,12,22,13,30,84.70
2012,12,22,13,31,88.80
2012,12,22,13,32,91.00
2012,12,22,13,33,95.00
2012,12,22,13,34,95.60
2012,12,22,13,35,97.00
2012,12,22,13,36,97.00
2012,12,22,13,37,102.20
2012,12,22,13,38,108.80
2012,12,22,13,39,114.80
2012,12,22,13,40,118.90
2012,12,22,13,41,122.80
2012,12,22,13,42,120.60
2012,12,22,13,43,118.00
2012,12,22,13,44,137.10
2012,12,22,13,45,168.80
2012,12,22,13,46,124.80
2012,12,22,13,47,156.50
2012,12,22,13,48,202.70
2012,12,22,13,49,230.20
2012,12,22,13,50,238.10
2012,12,22,13,51,278.50
2012,12,22,13,52,295.30
2012,12,22,13,53,281.50
2012,12,22,13,54,303.70
2012,12,22,13,55,322.20
2012,12,22,13,56,281.20
2012,12,22,13,57,254.00
2012,12,22,13,58,259.60
2012,12,22,13,59,229.40
2012,12,22,14,00,209.50
2012,12,22,14,01,227.30
2012,12,22,14,02,247.80
2012,12,22,14,03,226.90
2012,12,22,14,04,238.70
2012,12,22,14,05,213.40
2012,12,22,14,06,162.20
2012,12,22,14,07,140.90
2012,12,22,14,08,184.20
2012,12,22,14,09,112.60
2012,12,22,14,10,98.70
2012,12,22,14,11,97.00
2012,12,22,14,12,97.00
2012,12,22,14,13,97.00
2012,12,22,14,14,96.70
2012,12,22,14,15,94.40
2012,12,22,14,16,92.10
2012,12,22,14,17,90.40
2012,12,22,14,18,88.50
2012,12,22,14,19,88.00
2012,12,22,14,20,85.60
2012,12,22,14,21,83.10
2012,12,22,14,22,77.80
2012,12,22,14,23,70.80
2012,12,22,14,24,64.30
2012,12,22,14,25,61.90
2012,12,22,14,26,57.60
2012,12,22,14,27,55.30
2012,12,22,14,28,52.60
2012,12,22,14,29,49.70
2012,12,22,14,30,46.80
2012,12,22,14,31,45.80
2012,12,22,14,32,42.00
2012,12,22,14,33,41.30
2012,12,22,14,34,40.00
2012,12,22,14,35,39.40
2012,12,22,14,36,39.00
2012,12,22,14,37,37.10
2012,12,22,14,38,37.50
2012,12,22,14,39,39.00
2012,12,22,14,40,39.50
2012,12,22,14,41,41.40
2012,12,22,14,42,42.00
2012,12,22,14,43,44.10
2012,12,22,14,44,46.00
2012,12,22,14,45,46.40
2012,12,22,14,46,47.00
2012,12,22,14,47,47.00
2012,12,22,14,48,48.70
2012,12,22,14,49,49.30
2012,12,22,14,50,51.00
2012,12,22,14,51,51.90
2012,12,22,14,52,53.60
2012,12,22,14,53,54.00
2012,12,22,14,54,54.00
2012,12,22,14,55,53.00
2012,12,22,14,56,52.40
2012,12,22,14,57,50.10
2012,12,22,14,58,47.80
2012,12,22,14,59,46.20
2012,12,22,15,00,44.10
2012,12,22,15,01,41.60
2012,12,22,15,02,40.00
2012,12,22,15,03,39.50
2012,12,22,15,04,39.00
2012,12,22,15,05,37.50
2012,12,22,15,06,37.00
2012,12,22,15,07,37.00
2012,12,22,15,08,37.00
2012,12,22,15,09,37.00
2012,12,22,15,10,37.00
2012,12,22,15,11,37.00
2012,12,22,15,12,35.20
2012,12,22,15,13,35.00
2012,12,22,15,14,35.00
2012,12,22,15,15,35.00
2012,12,22,15,16,35.00
2012,12,22,15,17,33.40
2012,12,22,15,18,33.00
2012,12,22,15,19,32.80
2012,12,22,15,20,31.20
2012,12,22,15,21,28.90
2012,12,22,15,22,26.70
2012,12,22,15,23,26.00
2012,12,22,15,24,24.90
2012,12,22,15,25,22.50
2012,12,22,15,26,20.20
2012,12,22,15,27,19.00
2012,12,22,15,28,18.30
2012,12,22,15,29,18.00
2012,12,22,15,30,18.00
2012,12,22,15,31,18.30
2012,12,22,15,32,19.00
2012,12,22,15,33,20.20
2012,12,22,15,34,21.00
2012,12,22,15,35,21.00
2012,12,22,15,36,23.00
2012,12,22,15,37,23.00
2012,12,22,15,38,23.00
2012,12,22,15,39,23.00
2012,12,22,15,40,21.50
2012,12,22,15,41,20.90
2012,12,22,15,42,19.00
2012,12,22,15,43,18.70
2012,12,22,15,44,18.00
2012,12,22,15,45,16.80
2012,12,22,15,46,16.00
2012,12,22,15,47,14.20
2012,12,22,15,48,14.00
2012,12,22,15,49,14.00
2012,12,22,15,50,14.00
2012,12,22,15,51,14.00
2012,12,22,15,52,14.00
2012,12,22,15,53,14.00
2012,12,22,15,54,14.00
2012,12,22,15,55,14.00
2012,12,22,15,56,14.00
2012,12,22,15,57,14.00
2012,12,22,15,58,14.00
2012,12,22,15,59,14.00
2012,12,22,16,00,14.00
2012,12,22,16,01,13.20
2012,12,22,16,02,12.00
2012,12,22,16,03,12.00
2012,12,22,16,04,11.20
2012,12,22,16,05,10.70
2012,12,22,16,06,9.00
2012,12,22,16,07,9.00
2012,12,22,16,08,9.00
2012,12,22,16,09,7.60
2012,12,22,16,10,7.00
2012,12,22,16,11,6.70
2012,12,22,16,12,5.00
2012,12,22,16,13,5.00
2012,12,22,16,14,5.00
2012,12,22,16,15,1.50
2012,12,22,16,16,0.00
2012,12,22,16,17,0.00
2012,12,22,16,18,0.00
2012,12,22,16,19,0.00
2012,12,22,16,20,0.00
2012,12,22,16,21,0.00
2012,12,22,16,22,0.00
2012,12,22,16,23,0.00
2012,12,22,16,24,0.00
2012,12,22,16,25,0.00
2012,12,22,16,26,0.00
2012,12,22,16,27,0.00
2012,12,22,16,28,0.00
2012,12,22,16,29,0.00
2012,12,22,16,30,0.00
2012,12,22,16,31,0.00
2012,12,22,16,32,0.00
2012,12,22,16,33,0.00
2012,12,22,16,34,0.00
2012,12,22,16,35,0.00
2012,12,22,16,36,0.00
2012,12,22,16,37,0.00
2012,12,22,16,38,0.00
2012,12,22,16,39,0.00
2012,12,22,16,40,0.00
2012,12,22,16,41,0.00
2012,12,22,16,42,0.00
2012,12,22,16,43,0.00
2012,12,22,16,44,0.00
2012,12,22,16,45,0.00
2012,12,22,16,46,0.00
2012,12,22,16,47,0.00
2012,12,22,16,48,0.00
2012,12,22,16,49,0.00
2012,12,22,16,50,0.00
2012,12,22,16,51,0.00
2012,12,22,16,52,0.00
2012,12,22,16,53,0.00
2012,12,22,16,54,0.00
2012,12,22,16,55,0.00
2012,12,22,16,56,0.00
2012,12,22,16,57,0.00
2012,12,22,16,58,0.00
2012,12,22,16,59,0.00
2012,12,22,17,00,0.00
2012,12,22,17,01,0.00
2012,12,22,17,02,0.00
2012,12,22,17,03,0.00
2012,12,22,17,04,0.00
2012,12,22,17,05,0.00
2012,12,22,17,06,0.00
2012,12,22,17,07,0.00
2012,12,22,17,08,0.00
2012,12,22,17,09,0.00
2012,12,22,17,10,0.00
2012,12,22,17,11,0.00
2012,12,22,17,12,0.00
2012,12,22,17,13,0.00
2012,12,22,17,14,0.00
2012,12,22,17,15,0.00
2012,12,22,17,16,0.00
2012,12,22,17,17,0.00
2012,12,22,17,18,0.00
2012,12,22,17,19,0.00
2012,12,22,17,20,0.00
2012,12,22,17,21,0.00
2012,12,22,17,22,0.00
2012,12,22,17,23,0.00
2012,12,22,17,24,0.00
2012,12,22,17,25,0.00
2012,12,22,17,26,0.00
2012,12,22,17,27,0.00
2012,12,22,17,28,0.00
2012,12,22,17,29,0.00
2012,12,22,17,30,0.00
2012,12,22,17,31,0.00
2012,12,22,17,32,0.00
2012,12,22,17,33,0.00
2012,12,22,17,34,0.00
2012,12,22,17,35,0.00
2012,12,22,17,36,0.00
2012,12,22,17,37,0.00
2012,12,22,17,38,0.00
2012,12,22,17,39,0.00
2012,12,22,17,40,0.00
2012,12,22,17,41,0.00